This is the latest recevied weather packets stored in our database for station/object SQ9PDE-13. If no packets are shown the sender has not sent any weather packets the latest 10 day(s).
| Time | Temp. | Humidity | Pressure | Rain* | Wind** | Luminosity | Snow |
|---|---|---|---|---|---|---|---|
| 1777563175 | 13.33° C | 33% | 1026.8 hPa | - | - | - | - |
| 1777562875 | 12.78° C | 32% | 1026.9 hPa | - | - | - | - |
| 1777562574 | 12.78° C | 32% | 1026.9 hPa | - | - | - | - |
| 1777562274 | 12.78° C | 31% | 1026.9 hPa | - | - | - | - |
| 1777561973 | 13.33° C | 33% | 1026.8 hPa | - | - | - | - |
| 1777561673 | 13.33° C | 33% | 1027 hPa | - | - | - | - |
| 1777561372 | 12.22° C | 33% | 1027.2 hPa | - | - | - | - |
| 1777561072 | 12.22° C | 32% | 1027.2 hPa | - | - | - | - |
| 1777560771 | 12.78° C | 33% | 1027.3 hPa | - | - | - | - |
| 1777560470 | 12.22° C | 31% | 1027.2 hPa | - | - | - | - |
| 1777560170 | 12.22° C | 32% | 1027.1 hPa | - | - | - | - |
| 1777559869 | 12.22° C | 32% | 1027.2 hPa | - | - | - | - |
| 1777559569 | 12.78° C | 32% | 1027.2 hPa | - | - | - | - |
| 1777559269 | 12.22° C | 31% | 1027.2 hPa | - | - | - | - |
| 1777558968 | 13.33° C | 31% | 1027.1 hPa | - | - | - | - |
| 1777558667 | 13.33° C | 33% | 1027.1 hPa | - | - | - | - |
| 1777558367 | 12.78° C | 32% | 1027.2 hPa | - | - | - | - |
| 1777558066 | 12.78° C | 32% | 1027.2 hPa | - | - | - | - |
| 1777557766 | 13.33° C | 32% | 1027.3 hPa | - | - | - | - |
| 1777557465 | 12.78° C | 32% | 1027.3 hPa | - | - | - | - |
| 1777557165 | 13.33° C | 32% | 1027.3 hPa | - | - | - | - |
| 1777556864 | 13.33° C | 32% | 1027.5 hPa | - | - | - | - |
| 1777556564 | 12.78° C | 31% | 1027.6 hPa | - | - | - | - |
| 1777556263 | 13.33° C | 30% | 1027.5 hPa | - | - | - | - |
| 1777555963 | 12.78° C | 32% | 1027.6 hPa | - | - | - | - |
* Rain since midnight (hover to see other rain measurements)
** Current wind speed in m/s (hover to see current wind gust speed)